W9LCQ Weather Reports


Display with metric or nautical units.
time (UTC)temp
F
wind
direction
speed
MPH
gust
MPH
rain 1hr
in
rain 24hr
in
rain mn
in
humidity
%
barometer
mb
20260504172004 79 158 0.0 3.0 0.00 0.00 0.00 60 1015.2
20260504171004 79 251 2.0 8.0 0.00 0.00 0.00 61 1015.2
20260504151004 74 156 2.0 6.0 0.00 0.00 0.00 69 1016.2
20260504141004 70 198 2.0 5.0 0.00 0.00 0.00 74 1016.2
20260504082004 58 202 0.0 0.0 0.00 0.00 0.00 83 1016.6
20260504081004 58 202 0.0 0.0 0.00 0.00 0.00 82 1016.9
20260504050004 60 202 0.0 0.0 0.00 0.00 0.00 75 1018.9
20260504045005 61 202 0.0 0.0 0.00 0.00 0.00 74 1018.9
20260504044004 61 202 0.0 0.0 0.00 0.00 0.00 73 1018.9
20260504043005 62 202 0.0 0.0 0.00 0.00 0.00 72 1019.0
20260504042005 62 202 0.0 0.0 0.00 0.00 0.00 71 1019.2
20260504041005 63 202 0.0 0.0 0.00 0.00 0.00 70 1019.0
20260504040004 63 202 0.0 0.0 0.00 0.00 0.00 69 1019.0
20260504035004 64 202 0.0 0.0 0.00 0.00 0.00 68 1018.8
20260504034004 64 202 0.0 0.0 0.00 0.00 0.00 67 1018.9
20260504033005 65 202 0.0 0.0 0.00 0.00 0.00 66 1019.1
20260504032004 66 202 0.0 0.0 0.00 0.00 0.00 64 1018.9
20260504031004 66 202 0.0 1.0 0.00 0.00 0.00 63 1018.8
20260504030004 67 203 0.0 1.0 0.00 0.00 0.00 62 1018.8
20260504025003 67 165 0.0 0.0 0.00 0.00 0.00 61 1018.8
20260504023006 68 130 0.0 1.0 0.00 0.00 0.00 60 1018.6
20260504022004 68 173 0.0 2.0 0.00 0.00 0.00 60 1018.7
20260504021004 68 180 0.0 1.0 0.00 0.00 0.00 58 1018.6
20260504015004 69 146 0.0 2.0 0.00 0.00 0.00 56 1018.4
20260504014004 70 95 0.0 2.0 0.00 0.00 0.00 56 1018.3
20260504013004 70 100 0.0 1.0 0.00 0.00 0.00 55 1018.2
20260504011004 71 142 0.0 0.0 0.00 0.00 0.00 53 1018.2
20260504004004 73 154 0.0 2.0 0.00 0.00 0.00 50 1018.3
20260504003005 73 175 0.0 1.0 0.00 0.00 0.00 49 1018.2
20260504001004 74 120 0.0 3.0 0.00 0.00 0.00 47 1018.2
20260504000004 75 155 0.0 8.0 0.00 0.00 0.00 47 1018.2
20260503235004 76 137 0.0 6.0 0.00 0.00 0.00 46 1018.2
20260503234004 76 180 3.0 6.0 0.00 0.00 0.00 45 1018.2
20260503233004 77 154 1.0 5.0 0.00 0.00 0.00 44 1018.3
20260503231004 79 117 1.0 6.0 0.00 0.00 0.00 41 1018.4
20260503230004 80 125 1.0 6.0 0.00 0.00 0.00 42 1018.4
20260503225004 80 71 1.0 3.0 0.00 0.00 0.00 42 1018.5
20260503224004 80 269 1.0 3.0 0.00 0.00 0.00 39 1018.7
20260503223003 79 91 1.0 3.0 0.00 0.00 0.00 39 1018.6
20260503222004 80 88 3.0 9.0 0.00 0.00 0.00 38 1018.9
20260503221004 81 120 1.0 7.0 0.00 0.00 0.00 35 1019.1
20260503220004 80 179 0.0 8.0 0.00 0.00 0.00 33 1019.0
20260503215003 81 202 0.0 6.0 0.00 0.00 0.00 34 1019.1
20260503213004 81 175 1.0 7.0 0.00 0.00 0.00 33 1019.5
20260503212004 81 86 2.0 10.0 0.00 0.00 0.00 33 1019.6
20260503211004 81 89 1.0 6.0 0.00 0.00 0.00 35 1019.7
20260503210005 80 151 2.0 10.0 0.00 0.00 0.00 36 1019.9
20260503205005 81 185 1.0 7.0 0.00 0.00 0.00 37 1020.0
20260503204004 81 171 0.0 6.0 0.00 0.00 0.00 36 1020.1
20260503203004 80 211 2.0 7.0 0.00 0.00 0.00 34 1020.3
20260503202004 81 114 1.0 7.0 0.00 0.00 0.00 35 1020.4
20260503200004 80 150 1.0 6.0 0.00 0.00 0.00 35 1020.8
20260503195005 80 58 0.0 7.0 0.00 0.00 0.00 34 1020.9
20260503194004 80 74 3.0 9.0 0.00 0.00 0.00 34 1021.0
20260503192004 80 109 0.0 3.0 0.00 0.00 0.00 38 1021.3
20260503191004 81 74 0.0 6.0 0.00 0.00 0.00 38 1021.5
20260503190004 80 141 1.0 3.0 0.00 0.00 0.00 40 1021.7
20260503184005 80 122 1.0 3.0 0.00 0.00 0.00 38 1021.9
20260503183005 79 304 0.0 3.0 0.00 0.00 0.00 37 1022.0
20260503182005 79 99 0.0 3.0 0.00 0.00 0.00 38 1022.2
20260503181004 78 76 2.0 3.0 0.00 0.00 0.00 38 1022.4
20260503180004 78 88 2.0 6.0 0.00 0.00 0.00 40 1022.5
20260503175004 77 209 1.0 6.0 0.00 0.00 0.00 39 1022.7
20260503174004 77 120 1.0 3.0 0.00 0.00 0.00 39 1022.9
20260503173003 77 197 2.0 5.0 0.00 0.00 0.00 41 1023.1